Flag for Cook Islands Weather past 2 weeks in Rarotonga, Cook Islands

Now
77 °F

Broken clouds.


Feels Like: 78 °F
Forecast: 76 / 83 °F
Wind: 7 mph from Southeast

Location: Rarotonga

Current Time: Mar 31, 2015 at 7:23:57 AM

Latest Report: Mar 31, 2015 at 7:00 AM


Visibility: N/A

Pressure: 29.89 "Hg

Humidity: 83%

Dew point: 72 °F

Location of RarotongaLocation

Historic Weather in Rarotonga — Graph

°F

Rarotonga temperature yesterday

Maximum temperature yesterday: 84 °F (at 1:00 PM)
Minimum temperature yesterday: 75 °F (at 2:00 AM)
Average temperature yesterday: 78 °F

Past Weeks' High & Low Weather Summary

 TemperatureHumidityPressure
High91 °F (Mar 27, 12:00 PM)100% (Mar 23, 7:00 AM)29.98 "Hg (Mar 23, 7:00 AM)
Low72 °F (Mar 16, 7:00 AM)26% (Mar 29, 7:00 AM)29.65 "Hg (Mar 21, 5:00 AM)
Average81 °F83%29.83 "Hg
* Reported Mar 16 6:00 AM — Mar 31 6:00 AM, Rarotonga, Weather by CustomWeather, © 2015

Note: Actual official high and low records may vary slightly from our data, if they occured in-between our weather recording intervals... More about our weather records

Advertising

Rarotonga weather history for previous 24 hours

 ConditionsComfort  
Time TempWeatherWind HumidityBarometerVisibility
6:00 AM
Tue, Mar 31
77 °FPartly cloudy.6 mph83%29.86 "HgN/A
5:00 AM75 °FPassing clouds.1 mph89%29.86 "HgN/A
4:00 AM75 °FPassing clouds.1 mph89%29.86 "HgN/A
3:00 AM75 °FPassing clouds.1 mph89%29.86 "HgN/A
2:00 AM75 °FPassing clouds.2 mph89%29.89 "HgN/A
1:00 AM77 °FPassing clouds.5 mph83%29.89 "HgN/A
12:00 AM75 °FPassing clouds.5 mph89%29.89 "HgN/A
11:00 PM
Mon, Mar 30
75 °FPassing clouds.6 mph89%29.92 "HgN/A
10:00 PM75 °FPassing clouds.5 mph89%29.92 "HgN/A
9:00 PM75 °FPassing clouds.5 mph89%29.92 "HgN/A
8:00 PM75 °FPassing clouds.3 mph89%29.89 "HgN/A
7:00 PM77 °FPassing clouds.2 mph83%29.89 "HgN/A
6:00 PM79 °FPassing clouds.5 mph74%29.86 "HgN/A
5:00 PM81 °FPassing clouds.10 mph74%29.86 "HgN/A
4:00 PM81 °FScattered clouds.3 mph74%29.86 "HgN/A
3:00 PM82 °FPassing clouds.7 mph70%29.86 "HgN/A
2:00 PM84 °FScattered clouds.9 mph70%29.86 "HgN/A
1:00 PM84 °FPassing clouds.10 mph84%29.89 "HgN/A
12:00 PM81 °FScattered clouds.8 mph84%29.89 "HgN/A
11:00 AM79 °FBroken clouds.7 mph89%29.92 "HgN/A
10:00 AM77 °FScattered clouds.9 mph83%29.95 "HgN/A
9:00 AM79 °FScattered showers. Partly sunny.9 mph79%29.92 "HgN/A
8:00 AM77 °FDrizzle. Broken clouds.13 mph83%29.89 "HgN/A
7:00 AM77 °FScattered clouds.2 mph83%29.89 "HgN/A
Weather by CustomWeather, © 2015

See weather overviewHow to use our weather pages